(30541) = 1990 ST1 = 2000 KL71 = 2001 OG20

Discovered at Anderson Mesa on 2001-07-21 by LONEOS.

Orbit

Orbit type: Main Belt

Note: WebGL enabled browser required.

epoch2023-09-13.0
epoch JD2460200.5
perihelion date2018-09-21.28604
perihelion JD2458382.78604
argument of perihelion (°)154.03449
ascending node (°)196.66708
inclination (°)22.95319
eccentricity0.1630185
perihelion distance (AU)2.6415400
Tisserand w.r.t. Jupiter3.1
ΔV w.r.t. Earth (km/sec)12.4
semimajor axis (AU)3.1560315
mean anomaly (°)319.53424
mean daily motion (°/day)0.17578910
aphelion distance (AU)3.671
period (years)5.61
P-vector [x]0.97691767
P-vector [y]-0.18569305
P-vector [z]0.10559339
Q-vector [x]0.18199305
Q-vector [y]0.98232637
Q-vector [z]0.04374290
absolute magnitude13.33
phase slope0.15
uncertainty0
referenceMPEC 2024-A34
observations used2343
oppositions26
arc length (days)26748
first opposition used1950
last opposition used2023
residual rms (arc-secs)0.63
perturbers coarse indicatorM-v
perturbers precise indicator003Ek
first observation date used1950-07-12.0
last observation date used2023-10-05.0
computer nameMPCLINUX
JD of orbit computation2456670.728077
perihelion JD uncertainty (days)8.9049E-05
argument of perihelion uncertainty (°)1.9651E-05
ascending node uncertainty (°)1.0023E-05
inclination uncertainty (°)5.9988E-06
eccentricity uncertainty 4.5437E-08
perihelion distance uncertainty (AU)1.4198E-07
Minimum Orbit Intersection Distances (in AU)
for orbit epoch: 2460200.5, reference: E2024-A34
Mercury2.28725
Venus1.93421
Earth1.65317
Mars1.26528
Jupiter1.84709
Saturn5.91764
Uranus14.8453
Neptune27.0221

Observations

2384 total observations over interval: 1950 07 12.26875 – 2023 10 05.013021
These data are available for download (format description).

Date (UT) J2000 RA J2000 Dec Magn Location Ref
1950 07 12.26875 17 17 44.04 +08 04 58.6   261 – Palomar Mountain-DSS MPS 34454
1950 07 12.30000 17 17 43.01 +08 04 53.6   261 – Palomar Mountain-DSS MPS 34454
1955 05 23.25556 14 30 34.67 +00 07 03.0   261 – Palomar Mountain-DSS MPS 34454
1955 05 23.29028 14 30 33.43 +00 07 14.9   261 – Palomar Mountain-DSS MPS 34454
1982 05 15.38031 10 48 37.33 -01 42 42.4   260 – Siding Spring Observatory-DSS MPS 34454
1982 05 15.42024 10 48 37.78 -01 42 32.3   260 – Siding Spring Observatory-DSS MPS 34454
1990 09 15.34653 00 33 44.32 +12 24 46.6   261 – Palomar Mountain-DSS MPS 34454
1990 09 15.40278 00 33 42.46 +12 24 07.6   261 – Palomar Mountain-DSS MPS 34454
1990 09 18.35972 00 32 04.32 +11 48 30.8 17.5   675 – Palomar Mountain MPC 17117
1990 09 18.39149 00 32 03.07 +11 48 05.8   675 – Palomar Mountain MPC 17117
1990 09 20.39878 00 30 53.38 +11 23 02.5 17.5   675 – Palomar Mountain MPC 17117
1990 09 20.43299 00 30 52.04 +11 22 39.0   675 – Palomar Mountain MPC 17117
1990 10 15.25764 00 16 11.84 +05 43 42.6   261 – Palomar Mountain-DSS MPS 34454
1990 10 15.29722 00 16 10.61 +05 43 10.9   261 – Palomar Mountain-DSS MPS 34454
1994 06 05.19792 13 50 13.38 +00 33 11.4   261 – Palomar Mountain-DSS MPS 34454
1994 06 05.23264 13 50 12.78 +00 33 18.2   261 – Palomar Mountain-DSS MPS 34454
1995 07 31.19583 19 16 42.34 +12 01 25.6   261 – Palomar Mountain-DSS MPS 34454
1995 07 31.23750 19 16 40.70 +12 01 09.5   261 – Palomar Mountain-DSS MPS 34454
2000 04 07.41107 16 17 40.94 -04 09 51.5 19.4   704 – Lincoln Laboratory ETS, New Mexico MPS 32822
2000 04 07.42609 16 17 40.78 -04 09 44.2 19.4   704 – Lincoln Laboratory ETS, New Mexico MPS 32822
2000 04 07.44123 16 17 40.59 -04 09 35.0 19.4   704 – Lincoln Laboratory ETS, New Mexico MPS 32822
2000 04 13.34845 16 16 21.19 -03 16 23.1 18.6   704 – Lincoln Laboratory ETS, New Mexico MPS 32822
2000 04 13.36438 16 16 20.93 -03 16 14.7 19.1   704 – Lincoln Laboratory ETS, New Mexico MPS 32822
2000 04 13.38008 16 16 20.69 -03 16 05.5 19.0   704 – Lincoln Laboratory ETS, New Mexico MPS 32822
2000 04 13.40766 16 16 20.18 -03 15 50.6 19.2   704 – Lincoln Laboratory ETS, New Mexico MPS 32822
2000 05 05.34112 16 05 50.34 +00 02 15.5 18.6   704 – Lincoln Laboratory ETS, New Mexico MPS 32822
2000 05 05.35378 16 05 49.85 +00 02 21.1 18.4   704 – Lincoln Laboratory ETS, New Mexico MPS 32822
2000 05 05.36665 16 05 49.35 +00 02 27.9 18.6   704 – Lincoln Laboratory ETS, New Mexico MPS 32822
2000 05 05.39202 16 05 48.34 +00 02 40.9 18.3   704 – Lincoln Laboratory ETS, New Mexico MPS 32822
2000 05 28.24188 15 49 29.90 +02 45 38.5 18.6   704 – Lincoln Laboratory ETS, New Mexico MPS 17094
2000 05 28.25637 15 49 29.26 +02 45 44.7 18.7   704 – Lincoln Laboratory ETS, New Mexico MPS 17094
2000 05 28.27166 15 49 28.60 +02 45 50.5 18.7   704 – Lincoln Laboratory ETS, New Mexico MPS 17094
2000 05 28.28614 15 49 27.94 +02 45 54.6 18.8   704 – Lincoln Laboratory ETS, New Mexico MPS 17094
2000 05 28.30061 15 49 27.28 +02 45 59.7 18.6   704 – Lincoln Laboratory ETS, New Mexico MPS 17094
2000 06 04.25220 15 44 34.10 +03 18 35.9 17.6 R 699 – Lowell Observatory-LONEOS MPS 17094
2000 06 04.26489 15 44 33.57 +03 18 39.0   699 – Lowell Observatory-LONEOS MPS 17094
2000 06 04.27756 15 44 33.02 +03 18 42.0   699 – Lowell Observatory-LONEOS MPS 17094
2000 06 04.29026 15 44 32.53 +03 18 45.6   699 – Lowell Observatory-LONEOS MPS 17094
2001 05 30.40537 22 16 22.07 +12 16 18.3 18.5   704 – Lincoln Laboratory ETS, New Mexico MPS 32859
2001 05 30.41962 22 16 22.89 +12 16 24.5 18.2   704 – Lincoln Laboratory ETS, New Mexico MPS 32859
2001 05 30.43307 22 16 23.60 +12 16 31.8 18.2   704 – Lincoln Laboratory ETS, New Mexico MPS 32859
2001 06 19.37313 22 29 52.05 +14 53 21.8 17.9 R 699 – Lowell Observatory-LONEOS MPS 32859
2001 06 19.38095 22 29 52.25 +14 53 25.7   699 – Lowell Observatory-LONEOS MPS 32859
2001 06 19.38879 22 29 52.49 +14 53 28.3   699 – Lowell Observatory-LONEOS MPS 32859
2001 06 19.39661 22 29 52.75 +14 53 31.6   699 – Lowell Observatory-LONEOS MPS 32859
2001 07 02.36860 22 34 50.13 +16 10 59.3 18.0   644 – Palomar Mountain/NEAT MPS 32859
2001 07 02.36985 22 34 50.15 +16 10 59.4 18.1   644 – Palomar Mountain/NEAT MPS 32859
2001 07 02.37914 22 34 50.27 +16 11 02.5 18.1   644 – Palomar Mountain/NEAT MPS 32859
2001 07 02.38032 22 34 50.29 +16 11 02.6 18.1   644 – Palomar Mountain/NEAT MPS 32859
2001 07 02.38967 22 34 50.42 +16 11 05.7 18.6   644 – Palomar Mountain/NEAT MPS 32859
2001 07 02.39087 22 34 50.45 +16 11 05.8 18.6   644 – Palomar Mountain/NEAT MPS 32859
2001 07 21.33873 22 35 51.06 +17 09 09.9 17.3 R 699 – Lowell Observatory-LONEOS MPS 32469
2001 07 21.35748 22 35 50.84 +17 09 10.7   699 – Lowell Observatory-LONEOS MPS 32469
2001 07 21.37624 22 35 50.65 +17 09 12.2   699 – Lowell Observatory-LONEOS MPS 32469
2001 07 21.39501 22 35 50.49 +17 09 13.0   699 – Lowell Observatory-LONEOS MPS 32469
2001 07 22.30895 22 35 41.81 +17 09 53.6 17.4 R 699 – Lowell Observatory-LONEOS MPS 32469
2001 07 22.33085 22 35 41.54 +17 09 54.8   699 – Lowell Observatory-LONEOS MPS 32469
2001 07 22.35266 22 35 41.29 +17 09 55.8   699 – Lowell Observatory-LONEOS MPS 32469
2001 07 22.37449 22 35 41.03 +17 09 56.8   699 – Lowell Observatory-LONEOS MPS 32469
2001 08 01.39836 22 32 57.43 +17 02 17.2 17.7   644 – Palomar Mountain/NEAT MPS 32859
2001 08 01.39954 22 32 57.43 +17 02 16.9 17.0   644 – Palomar Mountain/NEAT MPS 32859
2001 08 01.40930 22 32 57.18 +17 02 15.8 17.3   644 – Palomar Mountain/NEAT MPS 32859
2001 08 01.41049 22 32 57.17 +17 02 15.4 16.9   644 – Palomar Mountain/NEAT MPS 32859
2001 08 01.42070 22 32 56.91 +17 02 14.2 16.9   644 – Palomar Mountain/NEAT MPS 32859
2001 08 01.42193 22 32 56.91 +17 02 13.9 16.9   644 – Palomar Mountain/NEAT MPS 32859
2001 08 21.27119 22 22 46.15 +15 17 56.1 16.9   704 – Lincoln Laboratory ETS, New Mexico MPS 33359
2001 08 21.28564 22 22 45.63 +15 17 48.6 17.3   704 – Lincoln Laboratory ETS, New Mexico MPS 33359
2001 08 21.29914 22 22 45.12 +15 17 41.8 17.5   704 – Lincoln Laboratory ETS, New Mexico MPS 33359
2001 08 21.31345 22 22 44.55 +15 17 34.5 17.5   704 – Lincoln Laboratory ETS, New Mexico MPS 33359
2001 08 21.32778 22 22 43.96 +15 17 28.0 17.2   704 – Lincoln Laboratory ETS, New Mexico MPS 33359
2001 09 17.19716 22 07 10.36 +10 09 44.5 16.6   644 – Palomar Mountain/NEAT MPS 35829
2001 09 17.21832 22 07 09.77 +10 09 27.3 16.6   644 – Palomar Mountain/NEAT MPS 35829
2001 09 17.23956 22 07 09.17 +10 09 10.0 16.7   644 – Palomar Mountain/NEAT MPS 35829
2001 09 17.28034 22 07 07.99 +10 08 36.3 17.4   704 – Lincoln Laboratory ETS, New Mexico MPS 35829
2001 09 17.29448 22 07 07.60 +10 08 24.9 17.0   704 – Lincoln Laboratory ETS, New Mexico MPS 35829
2001 09 17.30861 22 07 07.18 +10 08 13.5 17.7   704 – Lincoln Laboratory ETS, New Mexico MPS 35829
2001 09 21.11268 22 05 34.71 +09 16 17.2 16.6 R 699 – Lowell Observatory-LONEOS MPS 35829
2001 09 21.13444 22 05 34.21 +09 15 59.9   699 – Lowell Observatory-LONEOS MPS 35829
2001 09 21.15627 22 05 33.69 +09 15 41.6   699 – Lowell Observatory-LONEOS MPS 35829
2001 09 21.17815 22 05 33.22 +09 15 23.6   699 – Lowell Observatory-LONEOS MPS 35829
2001 10 16.16897 22 03 12.83 +03 50 16.9 18.1   704 – Lincoln Laboratory ETS, New Mexico MPS 38750
2001 10 16.18473 22 03 13.01 +03 50 05.6 18.6   704 – Lincoln Laboratory ETS, New Mexico MPS 38750
2001 10 16.20050 22 03 13.18 +03 49 55.3 18.5   704 – Lincoln Laboratory ETS, New Mexico MPS 38750
2001 10 16.21629 22 03 13.33 +03 49 44.1 18.8   704 – Lincoln Laboratory ETS, New Mexico MPS 38750
2001 10 16.23208 22 03 13.50 +03 49 34.4 18.5   704 – Lincoln Laboratory ETS, New Mexico MPS 38750
2001 10 19.09636 22 03 54.25 +03 17 22.5 17.4   704 – Lincoln Laboratory ETS, New Mexico MPS 40078
2001 10 19.11265 22 03 54.47 +03 17 11.8 18.0   704 – Lincoln Laboratory ETS, New Mexico MPS 40078
2001 10 19.12909 22 03 54.71 +03 17 01.0 17.9   704 – Lincoln Laboratory ETS, New Mexico MPS 40078
2001 10 19.14590 22 03 54.97 +03 16 49.9 18.2   704 – Lincoln Laboratory ETS, New Mexico MPS 40078
2001 10 19.16216 22 03 55.20 +03 16 39.3 18.0   704 – Lincoln Laboratory ETS, New Mexico MPS 40078
